Plymouth, NH

4:50 AM EDT on July 25, 2017 (GMT -0400)
Plymouth

Weather History for K1P1 - January, 2013

Change the Weather History Date:

Saturday, January 26, 2013

  Actual Average (KLCI) Record (KLCI)
Temperature  
Mean Temperature 12 °F -  
Max Temperature 16 °F 29 °F 48 °F (2002)
Min Temperature 7 °F 11 °F -7 °F (2009)
Degree Days  
Heating Degree Days 54    
Moisture  
Dew Point -4 °F    
Average Humidity 52    
Maximum Humidity 69    
Minimum Humidity 31    
Precipitation  
Precipitation 0.00 in - - ()
Sea Level Pressure  
Sea Level Pressure 30.07 in    
Wind  
Wind Speed 10 mph (WNW)    
Max Wind Speed 17 mph    
Max Gust Speed 28 mph    
Visibility 10 miles    
Events      
Averages and records for this station are not official NWS values.
T = Trace of Precipitation, MM = Missing Value Source: NWS Daily Summary

Daily Weather History Graph

Daily Weather History Graph

Search for Another Location

Airport or City:

Trip Planner

Search our weather history database for the weather conditions in past years. The results will help you decide how hot, cold, wet, or windy it might be!

Date:

Astronomy

Jan. 26, 2013 Rise Set
Actual Time 7:09 AM EST 4:50 PM EST
Civil Twilight 6:38 AM EST 5:21 PM EST
Nautical Twilight 6:03 AM EST 5:55 PM EST
Astronomical Twilight 5:29 AM EST 6:29 PM EST
Moon 4:43 PM EST (1/26) 6:24 AM EST (1/26)
Length of Visible Light 10h 42m
Length of Day
9h 40m
Full, 100% of the Moon is Illuminated
Jan 26
Full
Jan 26
Full
Feb 3
Last Quarter
Feb 10
New
Feb 17
First Quarter

Hourly Weather History & Observations

Time (EST) Temp. Windchill Dew Point Humidity Pressure Visibility Wind Dir Wind Speed Gust Speed Precip Events Conditions
12:15 AM 12.7 °F -0.4 °F -3.5 °F 48% 30.03 in 10.0 mi West 10.4 mph - N/A   Unknown
12:35 AM 12.2 °F 0.7 °F -2.2 °F 53% 30.02 in 10.0 mi WNW 8.1 mph - N/A   Unknown
12:55 AM 12.2 °F 1.7 °F -0.9 °F 56% 30.01 in 10.0 mi West 6.9 mph - N/A   Unknown
1:15 AM 12.0 °F 2.7 °F -0.8 °F 57% 30.01 in 10.0 mi West 5.8 mph - N/A   Unknown
1:35 AM 11.8 °F -0.7 °F -0.2 °F 58% 30.01 in 10.0 mi West 9.2 mph - N/A   Unknown
1:55 AM 11.3 °F -0.4 °F 0.3 °F 61% 30.01 in 10.0 mi West 8.1 mph - N/A   Unknown
2:15 AM 11.3 °F -1.3 °F 0.5 °F 62% 30.01 in 10.0 mi West 9.2 mph - N/A   Unknown
2:35 AM 11.3 °F 0.7 °F 0.7 °F 62% 30.01 in 10.0 mi West 6.9 mph - N/A   Unknown
2:55 AM 11.3 °F 1.9 °F 0.5 °F 62% 30.00 in 10.0 mi West 5.8 mph - N/A   Unknown
3:15 AM 11.1 °F -0.6 °F -0.2 °F 60% 30.00 in 10.0 mi West 8.1 mph - N/A   Unknown
3:35 AM 11.1 °F 0.4 °F -1.8 °F 56% 29.99 in 10.0 mi West 6.9 mph - N/A   Unknown
3:55 AM 10.6 °F -2.2 °F -2.9 °F 55% 29.99 in 10.0 mi West 9.2 mph 16.1 mph N/A   Unknown
4:15 AM 10.0 °F -0.9 °F -3.1 °F 55% 29.99 in 10.0 mi West 6.9 mph - N/A   Unknown
4:35 AM 9.7 °F -1.3 °F -3.8 °F 54% 29.99 in 10.0 mi West 6.9 mph - N/A   Unknown
4:55 AM 9.5 °F -1.5 °F -4.2 °F 54% 29.99 in 10.0 mi West 6.9 mph - N/A   Unknown
5:15 AM 9.1 °F -0.7 °F -4.5 °F 54% 29.99 in 10.0 mi WNW 5.8 mph - N/A   Unknown
5:35 AM 9.1 °F -4.0 °F -4.0 °F 55% 29.99 in 10.0 mi WNW 9.2 mph - N/A   Unknown
5:55 AM 8.6 °F -2.6 °F -3.1 °F 59% 30.00 in 10.0 mi WNW 6.9 mph - N/A   Unknown
6:15 AM 8.6 °F -3.7 °F -2.2 °F 62% 30.01 in 10.0 mi WNW 8.1 mph - N/A   Unknown
6:35 AM 8.1 °F -3.2 °F -2.0 °F 64% 30.01 in 10.0 mi WNW 6.9 mph - N/A   Unknown
6:55 AM 7.9 °F -0.7 °F -2.0 °F 64% 30.02 in 10.0 mi WNW 4.6 mph - N/A   Unknown
7:15 AM 7.7 °F -5.8 °F -2.2 °F 64% 30.03 in 10.0 mi West 9.2 mph - N/A   Unknown
7:35 AM 7.7 °F -5.8 °F -2.0 °F 65% 30.04 in 10.0 mi West 9.2 mph - N/A   Unknown
7:55 AM 7.7 °F -6.6 °F -1.8 °F 65% 30.04 in 10.0 mi West 10.4 mph 20.7 mph N/A   Unknown
8:15 AM 8.1 °F -6.2 °F -1.5 °F 65% 30.05 in 10.0 mi WNW 10.4 mph 17.3 mph N/A   Unknown
8:35 AM 8.6 °F -5.5 °F -1.5 °F 64% 30.04 in 10.0 mi WNW 10.4 mph 17.3 mph N/A   Unknown
8:55 AM 8.6 °F -6.3 °F -1.3 °F 64% 30.04 in 10.0 mi WNW 11.5 mph 17.3 mph N/A   Unknown
9:15 AM 9.5 °F -6.6 °F -2.0 °F 60% 30.05 in 10.0 mi West 13.8 mph 18.4 mph N/A   Unknown
9:35 AM 10.2 °F -3.5 °F -2.6 °F 56% 30.05 in 10.0 mi West 10.4 mph 16.1 mph N/A   Unknown
9:55 AM 10.9 °F -3.4 °F -3.3 °F 53% 30.06 in 10.0 mi West 11.5 mph 18.4 mph N/A   Unknown
10:15 AM 11.3 °F -4.9 °F -3.6 °F 51% 30.07 in 10.0 mi West 15.0 mph 24.2 mph N/A   Unknown
10:35 AM 12.2 °F -3.1 °F -4.0 °F 48% 30.06 in 10.0 mi West 13.8 mph 23.0 mph N/A   Unknown
10:55 AM 12.7 °F -1.8 °F -4.2 °F 47% 30.06 in 10.0 mi West 12.7 mph 21.9 mph N/A   Unknown
11:15 AM 13.1 °F -2.6 °F -4.5 °F 45% 30.05 in 10.0 mi West 15.0 mph 23.0 mph N/A   Unknown
11:35 AM 13.6 °F -1.3 °F -4.5 °F 44% 30.04 in 10.0 mi West 13.8 mph 24.2 mph N/A   Unknown
11:55 AM 13.6 °F -1.9 °F -4.7 °F 44% 30.04 in 10.0 mi West 15.0 mph 23.0 mph N/A   Unknown
12:15 PM 14.0 °F 1.2 °F -5.4 °F 42% 30.04 in 10.0 mi West 10.4 mph 19.6 mph N/A   Unknown
12:35 PM 14.9 °F 3.1 °F -5.8 °F 40% 30.03 in 10.0 mi WNW 9.2 mph 20.7 mph N/A   Unknown
12:55 PM 15.4 °F 1.6 °F -5.6 °F 39% 30.02 in 10.0 mi West 12.7 mph 24.2 mph N/A   Unknown
1:15 PM 15.8 °F -0.2 °F -6.0 °F 38% 30.03 in 10.0 mi WNW 17.3 mph 23.0 mph N/A   Unknown
1:35 PM 16.2 °F 1.3 °F -5.4 °F 38% 30.03 in 10.0 mi WNW 15.0 mph 25.3 mph N/A   Unknown
1:55 PM 16.3 °F 0.5 °F -6.0 °F 37% 30.04 in 10.0 mi West 17.3 mph 23.0 mph N/A   Unknown
2:15 PM 15.8 °F 2.1 °F -6.9 °F 36% 30.04 in 10.0 mi NW 12.7 mph 27.6 mph N/A   Unknown
2:35 PM 15.6 °F 3.2 °F -6.2 °F 38% 30.05 in 10.0 mi WNW 10.4 mph 19.6 mph N/A   Unknown
2:55 PM 16.3 °F 2.1 °F -7.2 °F 35% 30.05 in 10.0 mi NW 13.8 mph 21.9 mph N/A   Unknown
3:15 PM 16.2 °F 4.7 °F -7.2 °F 35% 30.07 in 10.0 mi WNW 9.2 mph 16.1 mph N/A   Unknown
3:35 PM 15.8 °F 4.2 °F -9.0 °F 33% 30.07 in 10.0 mi NW 9.2 mph 25.3 mph N/A   Unknown
3:55 PM 15.6 °F 2.5 °F -9.6 °F 32% 30.08 in 10.0 mi NW 11.5 mph 17.3 mph N/A   Unknown
4:15 PM 14.9 °F 1.6 °F -8.5 °F 35% 30.08 in 10.0 mi NW 11.5 mph 17.3 mph N/A   Unknown
4:35 PM 14.7 °F -0.5 °F -11.0 °F 31% 30.09 in 10.0 mi NW 15.0 mph 27.6 mph N/A   Unknown
4:55 PM 14.0 °F -0.2 °F -9.2 °F 35% 30.10 in 10.0 mi WNW 12.7 mph 18.4 mph N/A   Unknown
5:15 PM 13.8 °F 3.7 °F -9.2 °F 35% 30.10 in 10.0 mi WNW 6.9 mph - N/A   Unknown
5:35 PM 12.9 °F -0.9 °F -8.7 °F 38% 30.11 in 10.0 mi NW 11.5 mph 18.4 mph N/A   Unknown
5:55 PM 12.2 °F -2.5 °F -7.6 °F 41% 30.12 in 10.0 mi WNW 12.7 mph 18.4 mph N/A   Unknown
6:15 PM 11.8 °F 2.5 °F -7.2 °F 42% 30.12 in 10.0 mi WNW 5.8 mph 16.1 mph N/A   Unknown
6:35 PM 11.5 °F -1.1 °F -6.3 °F 45% 30.13 in 10.0 mi WNW 9.2 mph 16.1 mph N/A   Unknown
6:55 PM 11.1 °F -3.2 °F -5.8 °F 47% 30.14 in 10.0 mi WNW 11.5 mph 17.3 mph N/A   Unknown
7:15 PM 10.9 °F -0.8 °F -4.9 °F 49% 30.14 in 10.0 mi WNW 8.1 mph 16.1 mph N/A   Unknown
7:35 PM 10.4 °F 0.8 °F -4.2 °F 52% 30.14 in 10.0 mi WNW 5.8 mph - N/A   Unknown
7:55 PM 10.0 °F 0.4 °F -4.0 °F 53% 30.15 in 10.0 mi WNW 5.8 mph - N/A   Unknown
8:15 PM 10.0 °F -3.7 °F -3.5 °F 55% 30.15 in 10.0 mi West 10.4 mph - N/A   Unknown
8:35 PM 9.5 °F -3.5 °F -3.1 °F 57% 30.15 in 10.0 mi West 9.2 mph - N/A   Unknown
8:55 PM 9.5 °F -5.2 °F -2.4 °F 59% 30.15 in 10.0 mi West 11.5 mph 17.3 mph N/A   Unknown
9:15 PM 9.7 °F -2.4 °F -2.0 °F 59% 30.15 in 10.0 mi West 8.1 mph 18.4 mph N/A   Unknown
9:35 PM 9.9 °F -5.5 °F -1.3 °F 61% 30.15 in 10.0 mi West 12.7 mph - N/A   Unknown
9:55 PM 10.0 °F -0.9 °F -0.8 °F 62% 30.16 in 10.0 mi WNW 6.9 mph - N/A   Unknown
10:15 PM 9.5 °F -5.9 °F -0.4 °F 64% 30.17 in 10.0 mi WNW 12.7 mph - N/A   Unknown
10:35 PM 10.0 °F -2.9 °F 0.9 °F 66% 30.17 in 10.0 mi WNW 9.2 mph 17.3 mph N/A   Unknown
10:55 PM 9.7 °F -5.7 °F 1.0 °F 68% 30.17 in 10.0 mi West 12.7 mph 20.7 mph N/A   Unknown
11:15 PM 10.6 °F -3.8 °F 1.4 °F 67% 30.17 in 10.0 mi WNW 11.5 mph 23.0 mph N/A   Unknown
11:35 PM 10.9 °F -3.4 °F 1.8 °F 67% 30.18 in 10.0 mi NW 11.5 mph 23.0 mph N/A   Unknown
11:55 PM 10.4 °F -2.4 °F 2.1 °F 69% 30.18 in 10.0 mi WNW 9.2 mph 17.3 mph N/A   Unknown